Weather History for KTWM - December, 2012

Change the Weather History Date:

Wednesday, December 26, 2012

  Actual Average Record
Temperature  
Mean Temperature 6 °F -  
Max Temperature 17 °F 20 °F 42 °F (2011)
Min Temperature -5 °F 5 °F -22 °F (1990)
Degree Days  
Heating Degree Days 59    
Moisture  
Dew Point 0 °F    
Average Humidity 75    
Maximum Humidity 85    
Minimum Humidity 63    
Precipitation  
Precipitation 0.00 in - - ()
Sea Level Pressure  
Sea Level Pressure 30.27 in    
Wind  
Wind Speed 1 mph (NW)    
Max Wind Speed 5 mph    
Max Gust Speed -    
Visibility 9 miles    
Events Snow    
Averages and records for this station are not official NWS values.
T = Trace of Precipitation, MM = Missing Value Source: NWS Daily Summary

Daily Weather History Graph

Daily Weather History Graph

Search for Another Location

Airport or City:

Trip Planner

Search our weather history database for the weather conditions in past years. The results will help you decide how hot, cold, wet, or windy it might be!

Date:

Astronomy

Dec. 26, 2012 Rise Set
Actual Time 7:52 AM CST 4:23 PM CST
Civil Twilight 7:16 AM CST 4:59 PM CST
Nautical Twilight 6:37 AM CST 5:37 PM CST
Astronomical Twilight 6:00 AM CST 6:15 PM CST
Moon 3:19 PM CST (12/26) 6:14 AM CST (12/26)
Length of Visible Light 9h 42m
Length of Day
8h 31m
Waxing Gibbous, 97% of the Moon is Illuminated
Dec 26
Waxing Gibbous
Dec 28
Full
Jan 4
Last Quarter
Jan 11
New
Jan 18
First Quarter

Hourly Weather History & Observations

Time (CST) Temp. Windchill Dew Point Humidity Pressure Visibility Wind Dir Wind Speed Gust Speed Precip Events Conditions
12:11 AM 1.4 °F - -5.8 °F 72% 30.32 in 10.0 mi Calm Calm - N/A   Clear
12:31 AM 1.4 °F - -7.6 °F 66% 30.31 in 10.0 mi Calm Calm - N/A   Clear
12:51 AM -0.4 °F - -7.6 °F 72% 30.31 in 10.0 mi Calm Calm - N/A   Clear
1:11 AM -2.2 °F -10.4 °F -7.6 °F 78% 30.31 in 10.0 mi SSE 3.5 mph - N/A   Clear
1:31 AM -2.2 °F - -7.6 °F 78% 30.32 in 10.0 mi Calm Calm - N/A   Clear
1:51 AM -2.2 °F - -7.6 °F 78% 30.33 in 10.0 mi Calm Calm - N/A   Clear
2:11 AM -2.2 °F - -9.4 °F 71% 30.33 in 10.0 mi Calm Calm - N/A   Clear
2:31 AM -2.2 °F - -9.4 °F 71% 30.33 in 10.0 mi Calm Calm - N/A   Clear
2:51 AM -5.8 °F - -11.2 °F 77% 30.32 in 10.0 mi Calm Calm - N/A   Clear
3:11 AM -2.2 °F - -9.4 °F 71% 30.31 in 10.0 mi Calm Calm - N/A   Clear
3:32 AM -0.4 °F - -7.6 °F 72% 30.31 in 2.5 mi Calm Calm - N/A Snow Light Snow
3:51 AM -0.4 °F - -7.6 °F 72% 30.31 in 2.5 mi Calm Calm - N/A Snow Light Snow
4:11 AM -0.4 °F - -7.6 °F 72% 30.31 in 2.5 mi Calm Calm - N/A Snow Light Snow
4:51 AM 1.4 °F - -5.8 °F 72% 30.31 in 10.0 mi Calm Calm - N/A   Clear
5:11 AM 1.4 °F - -4.0 °F 78% 30.31 in 10.0 mi Calm Calm - N/A   Scattered Clouds
5:51 AM 1.4 °F -6.2 °F -4.0 °F 78% 30.31 in 10.0 mi NW 3.5 mph - N/A   Mostly Cloudy
6:11 AM 1.4 °F - -4.0 °F 78% 30.31 in 7.0 mi Calm Calm - N/A Snow Light Snow
6:31 AM 1.4 °F - -2.2 °F 85% 30.30 in 10.0 mi Calm Calm - N/A   Clear
6:52 AM 1.4 °F - -2.2 °F 85% 30.30 in 10.0 mi Calm Calm - N/A   Clear
7:11 AM 3.2 °F - -2.2 °F 78% 30.30 in 10.0 mi Calm Calm - N/A   Clear
7:31 AM 3.2 °F - -2.2 °F 78% 30.30 in 10.0 mi Calm Calm - N/A   Clear
7:51 AM 3.2 °F -4.2 °F -2.2 °F 78% 30.30 in 10.0 mi West 3.5 mph - N/A   Scattered Clouds
8:11 AM 3.2 °F - -0.4 °F 85% 30.30 in 3.0 mi Calm Calm - N/A Snow Light Snow
8:32 AM 5.0 °F - -0.4 °F 78% 30.30 in 1.2 mi Calm Calm - N/A Snow Light Snow
8:51 AM 5.0 °F -2.1 °F -0.4 °F 78% 30.30 in 10.0 mi NW 3.5 mph - N/A   Scattered Clouds
9:11 AM 6.8 °F - 1.4 °F 79% 30.30 in 10.0 mi Calm Calm - N/A   Clear
9:32 AM 8.6 °F 2.0 °F 1.4 °F 73% 30.30 in 10.0 mi NW 3.5 mph - N/A   Clear
9:51 AM 8.6 °F 0.1 °F 3.2 °F 79% 30.30 in 10.0 mi WNW 4.6 mph - N/A   Clear
10:11 AM 10.4 °F 4.0 °F 3.2 °F 73% 30.29 in 10.0 mi NW 3.5 mph - N/A   Clear
10:32 AM 12.2 °F - 5.0 °F 73% 30.28 in 10.0 mi Calm Calm - N/A   Clear
10:51 AM 12.2 °F - 6.8 °F 79% 30.28 in 10.0 mi Calm Calm - N/A   Clear
11:11 AM 12.2 °F - 6.8 °F 79% 30.27 in 10.0 mi Calm Calm - N/A   Clear
11:32 AM 14.0 °F - 6.8 °F 73% 30.27 in 10.0 mi Calm Calm - N/A   Clear
11:51 AM 15.8 °F - 6.8 °F 68% 30.26 in 10.0 mi Calm Calm - N/A   Scattered Clouds
12:11 PM 15.8 °F - 6.8 °F 68% 30.25 in 10.0 mi Calm Calm - N/A   Scattered Clouds
12:31 PM 15.8 °F - 6.8 °F 68% 30.24 in 10.0 mi Calm Calm - N/A   Scattered Clouds
12:51 PM 17.6 °F - 6.8 °F 63% 30.24 in 10.0 mi Calm Calm - N/A   Scattered Clouds
1:12 PM 17.6 °F - 6.8 °F 63% 30.24 in 10.0 mi Calm Calm - N/A   Clear
1:31 PM 17.6 °F - 6.8 °F 63% 30.24 in 10.0 mi Calm Calm - N/A   Scattered Clouds
1:51 PM 17.6 °F - 6.8 °F 63% 30.24 in 10.0 mi Calm Calm - N/A   Scattered Clouds
2:11 PM 17.6 °F - 6.8 °F 63% 30.24 in 10.0 mi Calm Calm - N/A   Clear
3:11 PM 17.6 °F - 8.6 °F 68% 30.24 in 10.0 mi Calm Calm - N/A   Clear
3:31 PM 17.6 °F - 8.6 °F 68% 30.25 in 10.0 mi Calm Calm - N/A   Clear
3:52 PM 17.6 °F - 8.6 °F 68% 30.24 in 10.0 mi Calm Calm - N/A   Clear
4:11 PM 17.6 °F - 8.6 °F 68% 30.24 in 10.0 mi Calm Calm - N/A   Clear
4:31 PM 15.8 °F - 6.8 °F 68% 30.24 in 10.0 mi Calm Calm - N/A   Clear
4:52 PM 12.2 °F - 6.8 °F 79% 30.24 in 10.0 mi Calm Calm - N/A   Clear
5:11 PM 10.4 °F - 5.0 °F 79% 30.24 in 10.0 mi Calm Calm - N/A   Clear
5:31 PM 8.6 °F - 3.2 °F 79% 30.24 in 10.0 mi Calm Calm - N/A   Clear
5:52 PM 8.6 °F - 3.2 °F 79% 30.24 in 10.0 mi Calm Calm - N/A   Clear
6:11 PM 6.8 °F - 1.4 °F 79% 30.24 in 10.0 mi Calm Calm - N/A   Clear
6:31 PM 6.8 °F - 1.4 °F 79% 30.23 in 10.0 mi Calm Calm - N/A   Clear
6:52 PM 5.0 °F -2.1 °F -0.4 °F 78% 30.23 in 10.0 mi North 3.5 mph - N/A   Clear
7:11 PM 5.0 °F -2.1 °F -0.4 °F 78% 30.23 in 10.0 mi North 3.5 mph - N/A   Clear
7:31 PM 3.2 °F -6.2 °F -0.4 °F 85% 30.23 in 10.0 mi NNW 4.6 mph - N/A   Clear
7:52 PM 3.2 °F - -0.4 °F 85% 30.23 in 10.0 mi Calm Calm - N/A   Clear
8:11 PM 3.2 °F - -2.2 °F 78% 30.23 in 10.0 mi Calm Calm - N/A   Clear
8:31 PM 5.0 °F -4.1 °F -0.4 °F 78% 30.22 in 10.0 mi NNW 4.6 mph - N/A   Mostly Cloudy
8:52 PM 6.8 °F - 1.4 °F 79% 30.22 in 10.0 mi Calm Calm - N/A   Overcast
9:11 PM 5.0 °F -2.1 °F -0.4 °F 78% 30.22 in 10.0 mi NW 3.5 mph - N/A   Overcast
9:31 PM 6.8 °F -2.0 °F -0.4 °F 72% 30.22 in 10.0 mi NW 4.6 mph - N/A   Scattered Clouds
9:52 PM 5.0 °F - -0.4 °F 78% 30.22 in 10.0 mi Calm Calm - N/A   Clear
10:11 PM 3.2 °F - -0.4 °F 85% 30.22 in 10.0 mi Calm Calm - N/A   Mostly Cloudy
10:31 PM 6.8 °F -0.1 °F 1.4 °F 79% 30.22 in 10.0 mi WNW 3.5 mph - N/A   Overcast
10:52 PM 8.6 °F 2.0 °F 3.2 °F 79% 30.22 in 10.0 mi NW 3.5 mph - N/A   Mostly Cloudy
11:11 PM 8.6 °F - 1.4 °F 73% 30.22 in 10.0 mi Calm Calm - N/A   Overcast
11:31 PM 6.8 °F - 1.4 °F 79% 30.21 in 10.0 mi Calm Calm - N/A   Overcast
11:52 PM 6.8 °F -2.0 °F 1.4 °F 79% 30.21 in 10.0 mi NNW 4.6 mph - N/A   Mostly Cloudy